IZ2WMD-13 Weather Reports


time (UTC)temp
C
wind
direction
speed
KPH
gust
KPH
rain 1hr
cm
rain 24hr
cm
rain mn
cm
humidity
%
barometer
mb
20260503072803 18 0.0 0.0 0.00 0.00 0.00 45 1018.1
20260503054740 14 0.0 0.0 0.00 0.00 0.00 62 1018.5
20260503052735 12 0.0 0.0 0.00 0.00 0.00 68 1018.6
20260503050730 10 0.0 0.0 0.00 0.00 0.00 74 1018.7
20260503044725 9 0.0 0.0 0.00 0.00 0.00 75 1018.8
20260503042720 8 0.0 0.0 0.00 0.00 0.00 79 1018.8
20260503040716 7 0.0 0.0 0.00 0.00 0.00 79 1018.8
20260503034711 8 0.0 0.0 0.00 0.00 0.00 75 1018.8
20260503032706 8 0.0 0.0 0.00 0.00 0.00 78 1018.7
20260503030701 8 0.0 0.0 0.00 0.00 0.00 74 1018.7
20260503024657 9 0.0 0.0 0.00 0.00 0.00 68 1018.7
20260503022652 8 0.0 0.0 0.00 0.00 0.00 75 1018.8
20260503020647 9 0.0 0.0 0.00 0.00 0.00 74 1019.0
20260503014642 9 0.0 0.0 0.00 0.00 0.00 73 1019.0
20260503012638 10 0.0 0.0 0.00 0.00 0.00 68 1019.0
20260503010633 10 0.0 0.0 0.00 0.00 0.00 72 1019.1
20260503004628 10 0.0 0.0 0.00 0.00 0.00 70 1019.3
20260503002623 10 0.0 0.0 0.00 0.00 0.00 69 1019.4
20260503000618 11 0.0 0.0 0.00 0.00 0.00 65 1019.6
20260502234614 11 0.0 0.0 0.00 0.00 0.00 62 1019.6
20260502230604 11 0.0 0.0 0.00 0.00 0.00 65 1019.9
20260502224559 12 0.0 0.0 0.00 0.00 0.00 60 1019.8
20260502222554 12 0.0 0.0 0.00 0.00 0.00 62 1019.9
20260502220550 12 0.0 0.0 0.00 0.00 0.00 59 1020.0
20260502214545 12 0.0 0.0 0.00 0.00 0.00 63 1019.9
20260502212540 13 0.0 0.0 0.00 0.00 0.00 59 1019.8
20260502202525 14 0.0 0.0 0.00 0.00 0.00 58 1019.8
20260502200520 15 0.0 0.0 0.00 0.00 0.00 54 1019.7
20260502194516 15 0.0 0.0 0.00 0.00 0.00 55 1019.7
20260502192511 16 0.0 0.0 0.00 0.00 0.00 51 1019.5
20260502190506 16 0.0 0.0 0.00 0.00 0.00 49 1019.3
20260502180452 19 0.0 0.0 0.00 0.00 0.00 35 1018.6
20260502162427 22 0.0 0.0 0.00 0.00 0.00 26 1018.5
20260502160422 23 0.0 0.0 0.00 0.00 0.00 26 1018.8
20260502150408 26 0.0 0.0 0.00 0.00 0.00 23 1018.9
20260502130340 27 0.0 0.0 0.00 0.00 0.00 24 1020.5
20260502122330 26 0.0 0.0 0.00 0.00 0.00 26 1021.3
20260502120325 26 0.0 0.0 0.00 0.00 0.00 27 1021.5
20260502114321 26 0.0 0.0 0.00 0.00 0.00 27 1021.9
20260502112316 26 0.0 0.0 0.00 0.00 0.00 27 1022.2
20260502110311 25 0.0 0.0 0.00 0.00 0.00 28 1022.6
20260502104306 25 0.0 0.0 0.00 0.00 0.00 27 1022.9
20260502102305 24 0.0 0.0 0.00 0.00 0.00 30 1023.3
20260502100257 24 0.0 0.0 0.00 0.00 0.00 31 1023.5